Regional Weather Roundup
Issued by NWS

Home | Current Version | Previous Version | Text Only | Print | Product List | Glossary Off
Versions: 1 2 3 4 5 6 7 8 9 10 11 12 13 14 15 16 17 18 19 20 21 22 23 24 25 26 27 28 29 30 31 32 33 34 35 36 37 38 39 40 41 42 43 44 45 46 47 48 49 50

000
ASUS43 KMPX 241910
RWRMN
WEATHER ROUNDUP FOR MINNESOTA
NATIONAL WEATHER SERVICE TWIN CITIES/CHANHASSEN MN
200 PM CDT WED AUG 24 2016


NOTE: "FAIR" INDICATES FEW OR NO CLOUDS BELOW 12,000 FEET WITH NO
SIGNIFICANT WEATHER AND/OR OBSTRUCTIONS TO VISIBILITY. N/A MEANS
CURRENT SKY AND/OR WEATHER CONDITIONS ARE NOT AVAILABLE.

MNZ060>063-068>070-242000-
   Twin Cities Metro

CITY           SKY/WX    TMP DP  RH WIND       PRES   REMARKS
TWIN CITIES    CLOUDY    81  59  47 NW9       29.93R
ST PAUL        MOSUNNY   80  62  54 W14       29.92R
CRYSTAL        PTSUNNY   81  56  42 W14       29.91R
BLAINE         PTSUNNY   82  59  44 W10       29.92R
LAKEVILLE      MOSUNNY   79  64  61 W8        29.93S
EDEN PRAIRIE   MOSUNNY   81  58  45 NW10      29.92S
LAKEVILLE      MOSUNNY   79  64  61 W8        29.93S
SOUTH ST PAUL  MOSUNNY   81  60  49 W10       29.92S
LAKE ELMO      FAIR      79  66  65 W7        29.93S
$$
MNZ001>005-007-008-013>017-022>024-027-028-242000-
   Northwest Minnesota

CITY           SKY/WX    TMP DP  RH WIND       PRES   REMARKS
BEMIDJI        MOSUNNY   73  55  52 W14G20    29.88S
HALLOCK        MOSUNNY   73  52  46 W21       29.83S
ROSEAU         SUNNY     73  55  53 W15G24    29.83R
WARROAD        SUNNY     73  61  64 W16       29.82S
THIEF RVR FALL PTSUNNY   71  52  50 W15G24    29.88R
CROOKSTON      SUNNY     73  54  49 W23       29.88S
FOSSTON        MOSUNNY   70  54  56 W16       29.90S
DETROIT LAKES  CLOUDY    72  54  53 W15       29.94S
MOORHEAD       MOSUNNY   73  54  49 W13G23    29.94R
PARK RAPIDS    MOSUNNY   75  53  46 W20G25    29.91S
MAHNOMEN       MOCLDY    74  53  48 W15       29.91R
$$
MNZ006-009>011-018-025>026-242000-
   North Central Minnesota

CITY           SKY/WX    TMP DP  RH WIND       PRES   REMARKS
BAUDETTE       SUNNY     75  55  49 W15       29.82R
FLAG ISLAND    SUNNY     75  52  43 W7        29.77S HAZE
INTL FALLS     SUNNY     78  55  44 W12G18    29.79S
WASKISH        SUNNY     75  57  53 SW16      29.85R
BIG FORK       SUNNY     79  52  38 W13G18    29.85R
LONGVILLE      MOSUNNY   75  54  46 W10G18    29.89S
GRAND RAPIDS   SUNNY     77  54  44 W10G20    29.87S
CRANE LAKE     MOSUNNY   77  57  50 W5        29.81S
ORR            SUNNY     79  52  38 W8        29.79S
COOK           SUNNY     79  54  41 W10       29.82S
WALKER         FAIR      73  54  51 W10G17    29.89R
$$
MNZ012-019>021-037-242000-
   Northeast Minnesota

CITY           SKY/WX    TMP DP  RH WIND       PRES   REMARKS
DULUTH         MOSUNNY   81  57  43 NW14      29.83S
ELY            MOSUNNY   75  63  64 W13       29.81S
HIBBING        SUNNY     77  53  43 W9G20     29.84R
EVELETH        SUNNY     78  49  36 W15       29.84R
DULUTH HARBOR  MOSUNNY   82  68  61 W10       29.81F
TWO HARBORS    MOSUNNY   81  70  69 W9        29.80S
SILVER BAY     PTSUNNY   79  66  65 SW5       29.79S
GRAND MARAIS     N/A     72  61  68 SW9       29.77S
G MARAIS ARPRT SUNNY     75  63  64 S7        29.81S
$$
MNZ029>031-032-039>041-046>048-054>057-064-242000-
   West Central Minnesota

CITY           SKY/WX    TMP DP  RH WIND       PRES   REMARKS
FERGUS FALLS   MOSUNNY   72  55  56 W16       29.96S
WHEATON        SUNNY     75  57  53 W15G22    30.00S
MORRIS         CLOUDY    75  55  50 W15       29.98S
ALEXANDRIA     PTSUNNY   72  54  53 W16       29.99R
ELBOW LAKE     FAIR      72  56  56 NW10G22   29.98R
WADENA         MOSUNNY   72  55  56 W16G22    29.93R
GLENWOOD       PTSUNNY   73  57  56 W17       29.98R
BENSON         PTSUNNY   75  52  43 NW13G21   29.98S
ORTONVILLE     MOSUNNY   75  54  46 W13G20    29.99F
MADISON        CLOUDY    75  54  46 NW14      30.00S
WILLMAR        FAIR      73  57  56 W12       29.99S
$$
MNZ033>034-036-042>043-049>051-058-059-242000-
   Central Minnesota

CITY           SKY/WX    TMP DP  RH WIND       PRES   REMARKS
ST CLOUD       PTSUNNY   78  54  43 W13G20    29.93R
SAUK CENTRE    FAIR      73  55  53 W15G24    29.97R
PAYNESVILLE    CLOUDY    75  55  50 W15       29.97R
AITKIN         SUNNY     81  48  32 SW8       29.87S
PINE RIVER     MOSUNNY   75  55  50 W9        29.93R
BRAINERD       SUNNY     78  52  40 W21       29.90S
STAPLES        MOSUNNY   75  52  43 W17       29.93R
LONG PRAIRIE   FAIR      73  54  49 SW13G18   29.96R
LITTLE FALLS   MOSUNNY   77  50  38 W12       29.93R
LITCHFIELD     PTSUNNY   77  57  50 W9        29.97S
BUFFALO        CLOUDY    78  57  47 W10       29.95S
MAPLE LAKE     CLOUDY    79  61  53 W12       29.95R
HUTCHINSON     SUNNY     76  60  57 W13G21    29.98R
$$
MNZ037-044-045-052-053-242000-
   East Central Minnesota

CITY           SKY/WX    TMP DP  RH WIND       PRES   REMARKS
PRINCETON      PTSUNNY   81  57  44 W9G17     29.92R
MORA           MOSUNNY   77  54  44 NW12G17   29.91R
CAMBRIDGE      MOSUNNY   81  61  50 W9        29.89R
RUSH CITY      CLOUDY    80  57  45 W8G17     29.90R
MOOSE LAKE     SUNNY     81  54  39 W8        29.85S
HINCKLEY       FAIR      81  54  39 W13G22    29.88S
CLOQUET        SUNNY     81  48  32 W14       29.85S
MCGREGOR       SUNNY     79  50  36 W12G23    29.88S
$$
MNZ071>073-080-081-089-090-097-098-242000-
   Southwest Minnesota

CITY           SKY/WX    TMP DP  RH WIND       PRES   REMARKS
MONTEVIDEO     CLOUDY    75  57  53 NW10      30.00F
GRANITE FALLS  CLOUDY    75  61  61 W8        30.01S
CANBY          CLOUDY    75  56  51 NW14      30.02S
MARSHALL       CLOUDY    74  58  57 W14       30.01S
REDWOOD FALLS  CLOUDY    74  58  57 W10       29.98S
OLIVIA         CLOUDY    73  59  60 W8        29.98S
PIPESTONE      CLOUDY    73  54  49 NW9       30.05S
WINDOM         CLOUDY    73  57  56 W12       30.02S
JACKSON        CLOUDY    75  55  50 NW9       30.02S
TRACY          CLOUDY    74  60  62 W5        30.02S
$$
MNZ065>067-074>077-082>085-091>093-242000-
   South Central Minnesota

CITY           SKY/WX    TMP DP  RH WIND       PRES   REMARKS
MANKATO        CLOUDY    79  63  57 NW10      29.97R
NEW ULM        CLOUDY    75  61  60 W12       29.98R
ST JAMES       MOSUNNY   72  57  60 W10       30.00R
FAIRMONT       MOSUNNY   76  61  59 NW13      29.99R
GLENCOE        CLOUDY    77  64  63 W9G16     29.96R
FARIBAULT      PTSUNNY   79  66  65 W9        29.96R
OWATONNA       MOSUNNY   79  64  61 NW8       29.96R
WASECA         PTSUNNY   77  64  65 NW9       29.98R
ALBERT LEA     CLOUDY    75  70  83 NW5       29.97S
$$
MNZ078>079-086>088-094>096-242000-
   Southeast Minnesota

CITY           SKY/WX    TMP DP  RH WIND       PRES   REMARKS
ROCHESTER      CLOUDY    77  69  76 NW10      29.95R
RED WING       CLOUDY    79  66  65 W10       29.91S
STANTON        CLOUDY    79  66  65 NW9       29.92S
DODGE CENTER   CLOUDY    75  68  78 NW10      29.97R
WINONA         MOSUNNY   79  68  69 NW8       29.90R
AUSTIN         CLOUDY    75  68  78 NW9       29.95S
PRESTON        MOSUNNY   79  70  73 W9        29.94S
$$
ABBREVIATIONS USED IN REMARKS
   TC - TEMPERATURES IN CELSIUS
  WCI - WIND CHILL INDEX
   HX - HEAT INDEX
  VSB - VISIBILITY
$$



USA.gov is the U.S. government's official web portal to all federal, state and local government web resources and services.